Regional Weather Roundup
Issued by NWS

Home | Current Version | Previous Version | Text Only | Print | Product List | Glossary Off
Versions: 1 2 3 4 5 6 7 8 9 10 11 12 13 14 15 16 17 18 19 20 21 22 23 24 25 26 27

000
ASUS45 KBOU 180810
RWRCO

WEATHER ROUNDUP FOR COLORADO
NATIONAL WEATHER SERVICE DENVER/BOULDER CO
100 AM MST SAT NOV 18 2017

NOTE: "FAIR" INDICATES FEW OR NO CLOUDS BELOW 12000 FEET WITH NO
SIGNIFICANT WEATHER AND/OR OBSTRUCTIONS TO VISIBILITY.

COZ001>005-013-030-031-180900-
...NORTHWEST COLORADO...

CITY           SKY/WX    TMP DP  RH WIND       PRES   REMARKS
CRAIG          FAIR      22  15  75 CALM      30.23R
HAYDEN         FAIR      21  17  84 W15       30.21R WCI   8
MEEKER         FAIR      25  15  66 MISG      30.23R
RABBIT EARS PA CLOUDY    10   9  92 W10G23    30.04R WCI  -3
STEAMBOAT SPGS CLOUDY    22  18  84 SW8       30.18R WCI  12
WALDEN         MOCLDY    18  10  73 W8        30.08R WCI   7
$$

COZ006>008-011-180900-
...WEST CENTRAL VALLEYS...

CITY           SKY/WX    TMP DP  RH WIND       PRES   REMARKS
GRAND JUNCTION FAIR      30  22  72 W10       30.25R WCI  21
MONTROSE       FAIR      32  19  58 NW20G26   30.24R WCI  20
EAGLE          CLOUDY    28  16  60 NW13      30.21R WCI  17
RIFLE          FAIR      31  19  61 NW9       30.24R WCI  23
DELTA          FAIR      36  23  60 W20       30.22R
NUCLA          FAIR      32  18  55 CALM      30.26R
$$

COZ017>023-064>068-180900-
...SOUTHWEST COLORADO...

CITY           SKY/WX    TMP DP  RH WIND       PRES   REMARKS
DURANGO        FAIR      31  20  63 W10       30.07R WCI  22
CORTEZ         FAIR      32  18  56 NW15      30.20R WCI  22
PAGOSA SPRINGS FAIR      36  13  39 W14G24    30.01R
TELLURIDE      FAIR      22   9  57 NW7       30.19R WCI  13
WOLF CREEK PAS   N/A     12  12 100 MISG      30.07R
$$

COZ009-010-012-014-032>034-037-058>063-180900-
...CENTRAL COLORADO...

CITY           SKY/WX    TMP DP  RH WIND       PRES   REMARKS
ASPEN          MOCLDY    24  11  57 NW9G21    30.15R WCI  14
BUENA VISTA    FAIR      24  13  63 NW35G48   29.99R WCI   6
COPPER MTN     MOCLDY    10   5  79 MISG      29.98R
BERTHOUD PASS  HVY SNOW   1  -9  60 MISG      29.79F VSB<1/4
COTTONWOOD PAS MOCLDY    27  12  54 W15G25    29.97R WCI  15
GUNNISON       FLURRIES  24  19  81 W8        30.12R WCI  15
KREMMLING      MOCLDY    28  18  64 W9        30.14R WCI  20
LEADVILLE      LGT SNOW  14   7  73 NW10G22   30.03R WCI   1
MONARCH PASS   CLOUDY    12  10  92 MISG      30.01R
SALIDA         CLOUDY    29  21  71 N16G25    30.06R WCI  18
SUNLIGHT       CLOUDY     9   5  85 MISG      30.16R
WILKERSON PASS   N/A     10   5  79 NW16G29   29.95R WCI  -7
$$

COZ069>075-180900-
...SAN LUIS VALLEY/SANGRE DE CRISTO MOUNTAINS...

CITY           SKY/WX    TMP DP  RH WIND       PRES   REMARKS
ALAMOSA        CLOUDY    33  26  75 N18G25    29.97R WCI  22
DEL NORTE      FAIR      29   8  42 NW18G28   30.02R WCI  16
LA VETA PASS   SNOW      23  21  93 W12G21      N/A  VSB 1/2 WCI  12
SAGUACHE       FAIR      28  19  69 NW32G46   29.95R WCI  12
$$

COZ035-036-038>040-180900-
...NORTHERN COLORADO FRONT RANGE...

CITY           SKY/WX    TMP DP  RH WIND       PRES   REMARKS
DENVER INTL AP FAIR      36  21  54 NW28G35   29.98R
DMNS CITY PARK   N/A     37  11  34 MISG      30.01R
AURORA         MOCLDY    34  19  52 NW16G24   29.99R WCI  24
FRONT RANGE AP FAIR      36  27  69 NW22G28   29.99R
ERIE MUNI ARPT FAIR      35  20  52 NW9       30.07R WCI  28
BOULDER MUN AP FAIR      36  19  51 W9        30.02R
CENTENNIAL     FAIR      35  13  40 NW24G40   29.99R WCI  23
BROOMFIELD     FAIR      36  16  44 NW16G23   30.01R
FORT COLLINS   MOCLDY    32  25  75 N18G30    30.06R WCI  20
LONGMONT       FAIR      37  19  48 N10       30.05R
$$

COZ041-046-047-076>085-087-088-180900-
...PIKES PEAK/PALMER DIVIDE AND SOUTHERN FOOTHILLS...

CITY           SKY/WX    TMP DP  RH WIND       PRES   REMARKS
COLO. SPRINGS  MOCLDY    36  25  64 N14G23    29.94R
A. F. ACADEMY  CLOUDY    31  26  80 N18G24    29.94R WCI  19
SCHRIEVER AFB  MOCLDY    34  25  67 N15G25    29.93R WCI  25
CHEYENNE MTN   MOCLDY    33  17  53 NW20G25   29.85R WCI  21
ELLICOTT       NOT AVBL
FALCON         FAIR      31  20  62 NW25G37   29.93R WCI  17
FORT CARSON    FAIR      36  25  65 NW7       29.90R
LIMON          CLOUDY    33  30  88 N22G31    29.92R WCI  21
MONUMENT HILL  CLOUDY    28  16  59 NW31G37   29.95R WCI  12
CANON CITY     FAIR      41  23  48 NW23G31   29.93R
WALSENBURG     CLOUDY    34  34 100 S5        29.94S WCI  30
TRINIDAD       LGT SNOW  34  33  96 CALM      29.98R VSB 3/4
$$

COZ042>045-048>051-090-091-180900-
...NORTHEAST COLORADO...

CITY           SKY/WX    TMP DP  RH WIND       PRES   REMARKS
GREELEY ARPT   LGT RAIN  35  25  66 N31G38    30.05R WCI  22
AKRON          CLOUDY    34  28  79 NW25G33   29.93R WCI  21
BURLINGTON     CLOUDY    40  36  86 NW28G41   29.85R
WRAY           NOT AVBL
YUMA           CLOUDY    36  30  80 NW24G30   29.90R
STERLING       MOCLDY    36  32  87 NW23      29.94R
HOLYOKE        CLOUDY    41  34  75 N21G28    29.87R
FORT MORGAN    CLOUDY    35  26  69 NW28G35   30.00R WCI  22
$$

COZ086-089-092>099-180900-
...SOUTHEAST COLORADO...

CITY           SKY/WX    TMP DP  RH WIND       PRES   REMARKS
PUEBLO         CLOUDY    39  36  89 CALM      29.92R
LA JUNTA       LGT RAIN  39  35  86 N17       29.92R
LAMAR          LGT RAIN  43  32  65 N20G36    29.85R
SPRINGFIELD      N/A     41  34  76 N31G45    29.86R
$$




USA.gov is the U.S. government's official web portal to all federal, state and local government web resources and services.